ANIK F1R

Last updated on Sun Apr 12 2026 00:02:51 GMT+0000 (Coordinated Universal Time)

1 28868U 05036A 26101.49945729 -.00000070 00000+0 00000+0 0 9991 2 28868 4.1413 77.3891 0003320 324.4843 230.3652 1.00272675 45783
UTC large
Height (km)
Speed (km/s)
/
Latitude / Longitude
Inclination (degrees)
Orbital Period (minutes)
Azimuth
Elevation
Range (km)
Doppler Factor

Next 0 passes for location: London (51.5072 / 0.1276)

Sorry there are no passes over London.
ANIK F1R